Location: Cornospital
(48.0620°N, 3.3837°W)
Time: 21:22:09
(UTC+00:00)

Cosmos 2061 Rocket - Pass Details

Date: 17 June 2021
Orbit: 965 x 1013 km, 82.9° (Epoch: 02 August)

Event Time Altitude Azimuth Distance (km) Brightness Sun altitude
Rises 21:44:52 0° 352° (N) 3,762 8.3 -11.0°
Reaches altitude 10° 21:47:27 10° 354° (N) 2,807 7.5 -11.3°
Maximum altitude 21:53:54 71° 79° (ENE) 1,066 4.1 -11.9°
Enters shadow 21:59:15 15° 162° (SSE) 2,402 5.4 -12.4°
